CZ-6A DEB, 54279

Orbit data source: Space-Track

CZ-6A DEB, 54279 is space debris in SSO originally from a launch on Fri, 11 Nov 2022 UTC launched from the Taiyaun Space Center, China (TSC). Debris objects in space refer to the collection of defunct objects orbiting the Earth. Examples of debris include non-operational satellites, rocket bodies, and fragments generated from explosions, collisions, or faulty payload assembly.

Loading next visibility...
Identifier
54279, 2022-151W
Orbit
SSO
Country
Flag of CNCN / PRC
Related business
Manufacturer
SAST
Mission
Spacecraft
Bus & Motor
Unknown
Mass
Unknown
Launch date (UTC)
2022-11-11 (4 years ago)
Launch vehicle
Unknown
Launch site
Taiyaun Space Center, China (TSC)
Object type
Payload
Rocket body
Debris
Shape & HBR
Unknown shape, 0.1 m
Radar Cross Section
Medium (>0.1 m² and <1 m²)

Expand to show TLE details & history
Last TLE update: 8 hours ago

TLE from 8 hours ago
0 CZ-6A DEB
1 54279U 22151W   26249.55756965  .00000217  00000-0  89110-4 0  9992
2 54279  98.6145 263.4203 0137901 190.2341 169.6029 14.31722934198752
Epoch: 2026-09-06T13:22Z
TLE epoch observation values (Epoch: 2026-09-06T13:22:54.017Z)
Latitude
-0.00002°
Longitude
77.04426°
Altitude
886.146 km
Speed
7.359 km/s
True Right ascension
17h 33m 40s
True Declination
0° 00' 00"
Sunlit
Object was in daylight at epoch
Visualization orbit readout
Latitude
Unknown
Longitude
Unknown
Altitude
Unknown
Speed
Unknown
Apparent Right ascension
Unknown
Apparent Declination
Unknown
Sunlit
N/A
Visualization observer readout
Local Sidereal Time
12:58:48
Azimuth
Unknown
Elevation
Unknown
Doppler factor
Unknown
Orbital elements
Apogee altitude
881.869 km
Perigee altitude
684.361 km
Semi-major axis
7,161.252 km
Eccentricity
0.01379
Inclination
98.6145°
RAAN
263.4203°
Arg. of periapsis
190.2341°
True anomaly
169.88332°
Mean anomaly
169.6029°
Eccentric anomaly
169.74358°
Mean motion
3.58146 °/min
Orbital period
100.52 mins
BSTAR
0.00008911
Loading maneuver chart data...
Computing Atmospheric mass density...

Documentation

Showing up to 5 results
|